Stations météo

réclame
Mon MeteoGroup
Regensburg, Allemagne (10776): Température de l'air & dewpoint: 12.11.2018 05:00:00 - 18.11.2018 05:00:00 (CET)Regensburg, Allemagne (10776): Température de l'air 5cm & Température de l'air -5cm: 12.11.2018 05:00:00 - 18.11.2018 05:00:00 (CET)Regensburg, Allemagne (10776): Température de l'air -20cm & Température de l'air -100cm: 12.11.2018 05:00:00 - 18.11.2018 05:00:00 (CET)Regensburg, Allemagne (10776): Vitesse du vent & gusts: 12.11.2018 05:00:00 - 18.11.2018 05:00:00 (CET)Regensburg, Allemagne (10776): Direction du vent: 12.11.2018 05:00:00 - 18.11.2018 05:00:00 (CET)Regensburg, Allemagne (10776): reduced air pressure: 12.11.2018 05:00:00 - 18.11.2018 05:00:00 (CET)Regensburg, Allemagne (10776): visibility: 12.11.2018 05:00:00 - 18.11.2018 05:00:00 (CET)Regensburg, Allemagne (10776): Ensoleillement: 12.11.2018 05:00:00 - 18.11.2018 05:00:00 (CET)Regensburg, Allemagne (10776): Quantités de précipitations: 12.11.2018 05:00:00 - 18.11.2018 05:00:00 (CET)
Date & Time tt [°C] td [°C] tt 5cm [°C] tt -5cm [°C] tt -20cm [°C] tt -100cm [°C] ff [km/h] ff [knt] fx [km/h] fx [knt] dd ppp [hPa] vv [km] sd [min] rr [mm]
18.11.2018 05:00:00 -0,2 -4,0 -2,8 0,2 3,9 10,7 13 7 26 14 NNE 1028,6 25 0 0,0
18.11.2018 04:00:00 -0,3 -3,6 -2,7 0,4 4,0 10,7 17 9 25 14 NNE 1029,0 25 0 0,0
18.11.2018 03:00:00 -0,1 -3,1 -2,6 0,5 4,1 10,7 14 7 26 14 NNE 1029,6 23 0 0,0
18.11.2018 02:00:00 0,4 -2,7 -2,0 0,6 4,2 10,7 16 9 29 15 NNE 1029,7 24 0 0,0
18.11.2018 01:00:00 0,7 -2,4 -1,9 0,7 4,3 10,7 14 8 23 13 NNE 1029,9 22 0 0,0
18.11.2018 00:00:00 0,3 -2,5 -3,0 0,8 4,4 10,7 8 5 22 12 N 1030,4 22 0 0,0
17.11.2018 23:00:00 0,4 -2,5 -2,6 1,0 4,5 10,7 7 4 20 11 NNE 1030,6 21 0 0,0
17.11.2018 22:00:00 0,7 -2,1 -2,4 1,1 4,6 10,7 10 5 19 10 NNE 1030,6 22 0 0,0
17.11.2018 21:00:00 0,6 -2,0 -2,8 1,2 4,7 10,7 8 4 16 9 N 1030,6 22 0 0,0
17.11.2018 20:00:00 1,1 -1,9 -2,1 1,4 4,8 10,7 10 5 22 12 NNE 1030,6 21 0 0,0
17.11.2018 19:00:00 2,0 -1,8 -0,3 1,5 4,9 10,8 15 8 35 19 NNE 1030,8 22 0 0,0
17.11.2018 18:00:00 2,7 -1,8 0,5 2,0 5,0 10,8 23 12 47 25 NNE 1030,9 24 0 0,0
17.11.2018 17:00:00 2,9 -2,3 0,5 2,8 5,0 10,8 21 12 37 20 NNE 1030,6 27 0 0,0
17.11.2018 16:00:00 4,1 -2,0 2,4 3,9 4,8 10,8 22 12 43 23 NNE 1030,2 33 54 0,0
17.11.2018 15:00:00 5,6 -2,0 4,2 4,9 4,6 10,8 27 15 44 24 NE 1029,8 37 60 0,0
17.11.2018 14:00:00 7,2 -0,8 8,5 5,8 4,3 10,8 18 10 37 20 NNE 1029,4 35 60 0,0
17.11.2018 13:00:00 6,9 -0,9 8,6 5,0 4,2 10,8 21 11 31 17 NNE 1029,8 31 60 0,0
17.11.2018 12:00:00 6,7 0,0 8,4 2,0 4,2 10,8 16 9 29 16 NNE 1030,2 25 60 0,0
17.11.2018 11:00:00 5,4 -0,6 6,4 0,6 4,3 10,8 16 8 32 18 NNE 1030,9 22 60 0,0
17.11.2018 10:00:00 3,4 -0,1 2,5 0,6 4,4 10,8 15 8 31 17 NNE 1031,2 20 60 0,0
17.11.2018 09:00:00 1,8 -0,7 -0,3 0,5 4,5 10,8 18 10 31 17 NNE 1031,4 17 18 0,0
17.11.2018 08:00:00 1,3 -0,8 -0,9 0,6 4,6 10,8 14 8 25 14 NNE 1030,9 17 0 0,0
17.11.2018 07:00:00 0,8 -0,9 -2,2 0,7 4,7 10,9 7 4 21 11 N 1030,5 16 0 0,0
17.11.2018 06:00:00 0,6 -1,0 -3,2 0,8 4,8 10,9 8 5 16 9 NNW 1030,3 18 0 0,0
17.11.2018 05:00:00 1,1 -0,7 -2,8 0,9 4,9 10,9 9 5 15 8 N 1030,4 19 0 0,0
17.11.2018 04:00:00 1,5 -0,5 -1,7 1,0 5,1 10,9 10 5 21 12 N 1030,5 18 0 0,0
17.11.2018 03:00:00 1,3 -0,4 -1,8 1,1 5,2 10,9 6 3 19 10 N 1030,6 18 0 0,0
17.11.2018 02:00:00 1,3 -0,2 -1,9 1,2 5,4 10,9 14 7 20 11 NNE 1030,6 16 0 0,0
17.11.2018 01:00:00 1,4 -0,2 -1,6 1,3 5,5 10,9 10 5 20 11 NNE 1030,4 14 0 0,0
17.11.2018 00:00:00 1,2 -0,1 -1,6 1,5 5,7 10,9 7 4 23 12 NNE 1030,7 11 0 0,0
16.11.2018 23:00:00 1,6 0,0 -0,7 1,6 5,9 10,9 11 6 22 12 NNE 1030,9 12 0 0,0
16.11.2018 22:00:00 1,7 0,2 -0,7 1,7 6,1 10,9 13 7 22 12 NNE 1030,8 13 0 0,0
16.11.2018 21:00:00 0,6 -0,5 -2,6 1,9 6,3 10,9 5 3 13 7 NNW 1031,2 15 0 0,0
16.11.2018 20:00:00 1,6 0,0 -1,4 2,4 6,5 10,9 7 4 15 8 N 1031,1 15 0 0,0
16.11.2018 19:00:00 2,4 0,5 -1,3 3,2 6,6 10,9 7 4 23 12 N 1030,7 15 0 0,0
16.11.2018 18:00:00 3,5 0,8 1,3 4,0 6,7 10,9 13 7 23 12 NNE 1030,2 16 0 0,0
16.11.2018 17:00:00 4,4 1,2 1,1 5,0 6,7 10,9 12 6 20 11 NNE 1030,1 22 0 0,0
16.11.2018 16:00:00 6,7 1,4 3,8 6,2 6,5 11,0 9 5 16 8 NNE 1029,6 25 54 0,0
16.11.2018 15:00:00 8,0 1,5 6,4 7,4 6,2 11,0 10 5 16 9 NE 1029,4 29 60 0,0
16.11.2018 14:00:00 8,6 1,0 10,5 8,5 5,9 11,0 8 4 16 9 N 1029,7 30 60 0,0
16.11.2018 13:00:00 8,6 0,9 11,4 7,7 5,7 11,0 6 3 14 7 N 1030,1 25 60 0,0
16.11.2018 12:00:00 6,8 1,0 9,0 5,8 5,6 11,0 9 5 12 6 NNE 1031,1 20 60 0,0
16.11.2018 11:00:00 5,3 1,3 7,4 4,0 5,7 11,0 6 3 15 8 N 1031,7 15 60 0,0
16.11.2018 10:00:00 2,0 0,7 2,4 1,6 5,9 11,0 10 6 16 9 NNE 1032,0 9 60 0,0
16.11.2018 09:00:00 0,0 -0,4 -1,3 1,6 6,1 11,0 8 4 14 8 N 1032,1 4,9 18 0,0
16.11.2018 08:00:00 -1,0 -1,4 -2,2 1,8 6,2 11,0 10 5 15 8 N 1032,2 6 0 0,0
16.11.2018 07:00:00 -1,0 -1,4 -2,0 2,1 6,4 11,0 10 5 16 9 N 1031,7 5 0 0,0
16.11.2018 06:00:00 -0,9 -1,2 -1,1 2,8 6,5 11,0 10 5 15 8 N 1031,4 0,2 0 0,0
16.11.2018 05:00:00 -0,6 -1,0 -0,6 3,3 6,7 11,0 11 6 18 10 N 1031,3 0,1 0 0,0
16.11.2018 04:00:00 0,0 -0,3 0,1 3,6 6,8 11,0 6 4 16 8 N 1031,3 0,1 0 0,0
16.11.2018 03:00:00 0,2 -0,1 0,5 3,9 6,9 11,0 9 5 13 7 N 1031,1 0,1 0 0,0
16.11.2018 02:00:00 0,7 0,4 0,7 4,2 7,0 11,0 8 5 13 7 N 1031,1 0,1 0 0,0
16.11.2018 01:00:00 1,2 0,8 1,5 4,5 7,0 11,0 8 4 12 7 N 1030,9 0,1 0 0,0
16.11.2018 00:00:00 1,7 1,2 1,9 4,7 7,1 11,0 7 4 13 7 N 1030,9 0,1 0 0,0
15.11.2018 23:00:00 2,2 1,8 2,2 4,7 7,2 11,0 5 3 10 6 NNW 1030,4 0,1 0 0,0
15.11.2018 22:00:00 2,4 2,0 2,4 4,8 7,3 11,0 5 3 13 7 N 1030,0 0,2 0 0,0
15.11.2018 21:00:00 2,6 2,2 2,7 4,8 7,5 11,1 8 4 15 8 N 1029,8 0,5 0 0,0
15.11.2018 20:00:00 2,7 2,2 2,5 4,8 7,6 11,1 9 5 14 7 N 1029,7 2,4 0 0,0
15.11.2018 19:00:00 2,8 2,2 2,5 4,7 7,8 11,1 8 4 16 9 N 1029,7 6 0 0,0
15.11.2018 18:00:00 2,1 1,4 0,6 4,9 7,9 11,1 10 5 16 9 N 1029,6 9 0 0,0
15.11.2018 17:00:00 2,7 1,6 1,0 5,9 7,9 11,1 8 4 17 9 NNW 1029,2 16 0 0,0
15.11.2018 16:00:00 4,4 2,2 3,3 7,2 7,9 11,1 9 5 16 8 NNW 1028,8 30 56 0,0
15.11.2018 15:00:00 6,0 2,5 5,7 8,5 7,7 11,1 9 5 17 9 N 1028,5 40 60 0,0
15.11.2018 14:00:00 6,8 2,7 9,4 9,5 7,5 11,1 10 5 16 9 N 1028,5 37 60 0,0
15.11.2018 13:00:00 6,5 2,6 9,2 8,8 7,3 11,1 9 5 15 8 N 1029,1 29 29 0,0
15.11.2018 12:00:00 5,4 2,6 7,9 7,8 7,2 11,1 6 4 12 7 NNE 1029,8 17 1 0,0
15.11.2018 11:00:00 4,0 2,5 5,1 6,4 7,2 11,1 8 4 15 8 NE 1030,5 18 0 0,0
15.11.2018 10:00:00 2,8 1,8 3,5 5,7 7,3 11,1 10 5 15 8 NE 1030,7 12 0 0,0
15.11.2018 09:00:00 2,7 1,8 3,1 5,6 7,3 11,1 10 5 16 9 NE 1030,5 7 0 0,0
15.11.2018 08:00:00 3,7 2,9 3,6 5,7 7,3 11,1 8 5 12 7 NE 1029,9 4,2 0 0,0
15.11.2018 07:00:00 4,5 3,7 4,3 5,8 7,4 11,1 4 2 9 5 NE 1029,7 6 0 0,0
15.11.2018 06:00:00 4,6 4,0 4,4 5,8 7,4 11,1 4 2 8 4 NE 1029,6 5 0 0,0
15.11.2018 05:00:00 4,4 4,0 4,3 5,8 7,4 11,1 3 1 7 4 NNW 1029,4 1,7 0 0,0
15.11.2018 04:00:00 4,1 3,8 4,2 5,8 7,5 11,1 4 2 9 5 N 1029,8 0,3 0 0,0
15.11.2018 03:00:00 4,1 3,8 4,3 5,9 7,5 11,1 5 3 9 5 N 1030,1 0,3 0 0,0
15.11.2018 02:00:00 4,5 4,2 4,4 5,9 7,5 11,2 4 2 5 3 NNE 1030,1 0,9 0 0,0
15.11.2018 01:00:00 4,4 4,1 4,4 5,9 7,6 11,2 3 1 4 2 WNW 1030,3 0,3 0 0,0
15.11.2018 00:00:00 4,4 4,1 4,3 5,9 7,6 11,2 3 2 5 3 N 1030,6 0,4 0 0,0
14.11.2018 23:00:00 4,4 4,0 4,4 5,9 7,7 11,2 5 3 9 5 NNE 1030,8 0,7 0 0,0
14.11.2018 22:00:00 4,6 4,0 4,4 5,8 7,8 11,2 3 2 6 4 N 1031,1 5 0 0,0
14.11.2018 21:00:00 4,4 3,8 4,3 5,6 7,9 11,2 4 2 7 4 NNE 1031,2 10 0 0,0
14.11.2018 20:00:00 4,1 3,7 4,0 5,3 8,1 11,2 5 3 7 4 NNE 1031,5 10 0 0,0
14.11.2018 19:00:00 3,5 3,0 0,7 5,1 8,3 11,2 5 3 7 4 NNW 1031,4 5 0 0,0
14.11.2018 18:00:00 4,6 3,8 1,2 6,3 8,3 11,2 4 2 6 4 N 1030,8 13 0 0,0
14.11.2018 17:00:00 5,6 4,1 2,4 7,8 8,2 11,2 1 0 11 6 NNW 1030,6 23 0 0,0
14.11.2018 16:00:00 7,7 4,9 7,6 9,0 8,1 11,2 5 3 11 6 NNE 1031,0 28 0 0,0
14.11.2018 15:00:00 8,3 5,1 8,5 9,4 7,9 11,2 6 3 11 6 NNE 1030,8 29 0 0,0
14.11.2018 14:00:00 8,4 5,2 9,1 9,4 7,7 11,2 3 2 12 7 N 1031,1 23 0 0,0
14.11.2018 13:00:00 8,3 4,6 9,6 8,9 7,6 11,2 5 3 15 8 ESE 1031,5 26 1 0,0
14.11.2018 12:00:00 7,7 5,2 8,2 8,2 7,5 11,2 7 4 14 8 SE 1032,0 19 0 0,0
14.11.2018 11:00:00 7,2 5,5 7,4 7,5 7,4 11,2 5 3 15 8 ESE 1032,6 16 0 0,0
14.11.2018 10:00:00 6,4 5,5 6,6 6,8 7,4 11,2 6 4 12 6 SSE 1032,5 11 0 0,0
14.11.2018 09:00:00 6,0 5,7 6,0 6,4 7,3 11,2 2 1 5 3 N 1033,0 0,7 0 0,1
14.11.2018 08:00:00 5,7 5,5 5,7 6,2 7,3 11,2 4 2 6 3 NW 1033,0 0,2 0 0,0
14.11.2018 07:00:00 6,0 5,7 5,8 6,1 7,3 11,2 3 2 6 3 E 1032,7 1,6 0 0,0
14.11.2018 06:00:00 5,8 5,6 5,6 6,0 7,3 11,2 3 2 5 3 SW 1032,7 0,3 0 0,0
14.11.2018 05:00:00 5,4 5,2 5,3 5,8 7,3 11,3 2 1 4 2 NNW 1033,0 0,2 0 0,0
14.11.2018 04:00:00 5,3 5,1 5,1 5,7 7,3 11,3 3 1 5 3 NNW 1033,0 0,2 0 0,0
14.11.2018 03:00:00 5,5 5,2 5,3 5,4 7,4 11,3 2 1 6 3 NW 1033,2 0,2 0 0,0
14.11.2018 02:00:00 5,6 5,4 5,3 5,0 7,5 11,3 3 2 11 6 SSW 1033,1 0,1 0 0,0
14.11.2018 01:00:00 4,3 4,0 4,0 4,5 7,6 11,3 3 2 7 4 WSW 1033,4 0,5 0 0,0
14.11.2018 00:00:00 4,4 4,3 2,3 4,0 7,8 11,3 3 2 8 4 S 1033,4 0,1 0 0,0
13.11.2018 23:00:00 5,0 4,8 2,2 4,2 8,0 11,3 4 2 8 5 NNE 1033,1 0,2 0 0,0
13.11.2018 22:00:00 5,0 4,7 1,4 4,7 8,2 11,3 6 4 10 6 S 1032,9 2,8 0 0,0
13.11.2018 21:00:00 6,1 5,7 4,2 5,3 8,4 11,3 5 3 10 5 SE 1032,5 3,7 0 0,0
13.11.2018 20:00:00 6,5 6,1 3,5 5,7 8,5 11,3 5 3 10 5 SW 1032,0 11 0 0,0
13.11.2018 19:00:00 7,5 7,0 4,0 6,4 8,6 11,3 6 3 18 10 SSW 1031,5 19 0 0,0
13.11.2018 18:00:00 7,6 7,0 5,4 7,3 8,6 11,3 11 6 17 9 SSW 1031,0 28 0 0,0
13.11.2018 17:00:00 8,1 7,1 4,9 8,2 8,6 11,3 6 3 13 7 S 1030,5 23 0 0,0
13.11.2018 16:00:00 8,9 7,7 8,4 8,7 8,5 11,3 6 4 13 7 SSE 1029,4 19 0 0,0
13.11.2018 15:00:00 8,4 7,4 8,2 8,9 8,5 11,3 8 4 16 8 S 1028,9 14 0 0,0
13.11.2018 14:00:00 7,7 6,6 7,7 8,7 8,4 11,3 11 6 19 11 SE 1028,0 8 0 0,0
13.11.2018 13:00:00 7,8 6,8 8,0 8,7 8,3 11,3 9 5 17 9 SSE 1027,8 10 0 0,0
13.11.2018 12:00:00 7,3 6,3 8,0 8,8 8,2 11,3 9 5 15 8 SSE 1028,0 11 0 0,0
13.11.2018 11:00:00 6,7 6,1 7,5 8,2 8,2 11,3 5 3 10 6 SSE 1028,0 11 0 0,0
13.11.2018 10:00:00 5,9 5,6 6,3 7,7 8,1 11,3 4 2 11 6 S 1027,3 2,1 0 0,0
13.11.2018 09:00:00 6,0 5,8 6,2 7,2 8,2 11,3 6 3 13 7 S 1026,1 0,2 0 0,0
13.11.2018 08:00:00 6,0 5,8 6,0 7,0 8,2 11,3 5 3 10 6 SSE 1025,5 0,3 0 0,0
13.11.2018 07:00:00 5,8 5,5 5,8 7,0 8,2 11,4 6 3 13 7 SSW 1025,0 0,2 0 0,1
13.11.2018 06:00:00 5,9 5,7 5,8 7,1 8,2 11,4 7 4 13 7 SE 1024,1 0,2 0 0,0
13.11.2018 05:00:00 6,0 5,8 6,0 7,1 8,3 11,4 6 3 14 8 SSE 1023,7 0,2 0 0,0
13.11.2018 04:00:00 6,0 5,8 6,0 7,2 8,3 11,4 8 5 18 10 SE 1023,8 0,2 0 0,0
13.11.2018 03:00:00 6,1 5,9 6,0 7,2 8,3 11,4 10 6 18 10 SE 1024,1 0,2 0 0,0
13.11.2018 02:00:00 6,2 6,0 6,2 7,4 8,3 11,4 9 5 19 10 SE 1024,2 0,2 0 0,0
13.11.2018 01:00:00 6,6 6,4 6,5 7,5 8,3 11,4 8 5 18 10 SE 1024,0 0,2 0 0,0
13.11.2018 00:00:00 6,7 6,5 6,6 7,6 8,3 11,4 10 5 18 10 SSE 1024,2 0,2 0 0,0
12.11.2018 23:00:00 6,9 6,7 6,8 7,6 8,3 11,4 10 5 19 10 SE 1024,1 0,2 0 0,0
12.11.2018 22:00:00 7,2 7,0 7,1 7,7 8,3 11,4 8 4 14 7 SE 1024,1 0,2 0 0,0
12.11.2018 21:00:00 7,1 6,8 7,0 7,7 8,3 11,4 8 4 15 8 SE 1023,9 0,4 0 0,0
12.11.2018 20:00:00 7,2 6,9 7,1 7,7 8,3 11,4 9 5 16 8 SE 1023,4 1,1 0 0,0
12.11.2018 19:00:00 7,0 6,7 6,9 7,7 8,3 11,4 6 4 15 8 SE 1022,9 0,8 0 0,0
12.11.2018 18:00:00 7,1 6,8 7,0 7,9 8,2 11,4 6 4 11 6 ESE 1022,4 0,6 0 0,0
12.11.2018 17:00:00 7,3 6,8 7,2 8,1 8,2 11,4 3 2 12 7 SE 1022,0 3,4 0 0,0
12.11.2018 16:00:00 7,5 7,0 7,6 8,4 8,1 11,4 6 3 13 7 SSE 1021,5 2,9 0 0,0
12.11.2018 15:00:00 7,5 7,1 7,8 8,5 7,9 11,4 7 4 16 9 ESE 1021,0 2,1 0 0,0
12.11.2018 14:00:00 7,4 7,0 7,7 8,5 7,8 11,4 8 4 16 8 ESE 1020,6 0,9 0 0,0
12.11.2018 13:00:00 7,3 7,0 7,6 8,2 7,6 11,4 8 5 18 10 SE 1021,2 0,6 0 0,0
12.11.2018 12:00:00 7,0 6,6 7,6 7,7 7,6 11,4 7 4 16 9 SE 1021,2 1,4 0 0,0
12.11.2018 11:00:00 6,6 6,4 6,8 7,0 7,5 11,4 11 6 24 13 SE 1021,7 1,1 0 0,0
12.11.2018 10:00:00 6,0 5,8 6,2 6,4 7,5 11,4 13 7 23 12 ESE 1021,2 0,7 0 0,0
12.11.2018 09:00:00 5,6 5,5 5,6 5,9 7,5 11,4 11 6 24 13 SE 1021,5 0,3 0 0,0
12.11.2018 08:00:00 5,1 5,0 5,0 5,6 7,5 11,4 10 6 27 14 SE 1021,4 0,3 0 0,0
12.11.2018 07:00:00 4,2 4,0 4,1 5,4 7,6 11,4 6 4 19 10 SE 1021,2 0,2 0 0,0
12.11.2018 06:00:00 4,7 4,6 4,6 5,3 7,6 11,4 6 3 13 7 SSE 1020,9 0,1 0 0,0
12.11.2018 05:00:00 4,5 4,4 4,3 4,9 7,7 11,4 4 2 8 4 SSE 1020,6 0,1 0 0,0

tt = Température de l'air
td = dewpoint
tt 5cm = Température de l'air 5cm
tt -5cm = Température de l'air -5cm
tt -20cm = Température de l'air -20cm
tt -100cm = Température de l'air -100cm
ff = Vitesse du vent
fx = gusts
dd = Direction du vent
ppp = reduced air pressure
vv = visibility
sd = Ensoleillement
rr = Quantités de précipitations

stations d'obs. à proximité